Weather History for Chippewa, MI

Change the Weather History Date:

Friday, December 6, 2013

  Actual Average Record
Temperature  
Mean Temperature 14 °F -  
Max Temperature 21 °F 32 °F 55 °F (2001)
Min Temperature 8 °F 17 °F -8 °F (1991)
Degree Days  
Heating Degree Days 50    
Moisture  
Dew Point 9 °F    
Average Humidity 79    
Maximum Humidity 92    
Minimum Humidity 68    
Precipitation  
Precipitation 0.00 in - - ()
Sea Level Pressure  
Sea Level Pressure 30.14 in    
Wind  
Wind Speed 11 mph (WSW)    
Max Wind Speed 18 mph    
Max Gust Speed 23 mph    
Visibility 10 miles    
Events      
Averages and records for this station are not official NWS values.
T = Trace of Precipitation, MM = Missing Value Source: NWS Daily Summary

Daily Weather History Graph

Daily Weather History Graph

Search for Another Location

Airport:

Trip Planner

Search our weather history database for the weather conditions in past years. The results will help you decide how hot, cold, wet, or windy it might be!

Date:

Astronomy

Dec. 06, 2013 Rise Set
Actual Time 8:06 AM EST 4:51 PM EST
Civil Twilight 7:31 AM EST 5:26 PM EST
Nautical Twilight 6:53 AM EST 6:04 PM EST
Astronomical Twilight 6:17 AM EST 6:40 PM EST
Moon 11:02 AM EST (12/6) 9:32 PM EST (12/6)
Length of Visible Light 9h 54m
Length of Day
8h 45m
Waxing Crescent, 19% of the Moon is Illuminated
Dec 6
Waxing Crescent
Dec 9
First Quarter
Dec 17
Full
Dec 25
Last Quarter
Jan 1
New

Hourly Weather History & Observations

Time (EST) Temp. Windchill Dew Point Humidity Pressure Visibility Wind Dir Wind Speed Gust Speed Precip Events Conditions
12:15 AM 12.2 °F -2.5 °F 6.8 °F 79% 30.01 in 10.0 mi WSW 12.7 mph 17.3 mph N/A   Clear
12:35 AM 12.2 °F -1.8 °F 6.8 °F 79% 30.00 in 10.0 mi WSW 11.5 mph 18.4 mph N/A   Clear
12:55 AM 12.2 °F -1.8 °F 6.8 °F 79% 30.00 in 10.0 mi WSW 11.5 mph 16.1 mph N/A   Clear
1:15 AM 12.2 °F -1.8 °F 6.8 °F 79% 30.00 in 10.0 mi WSW 11.5 mph - N/A   Clear
1:35 AM 12.2 °F -1.8 °F 6.8 °F 79% 30.01 in 10.0 mi WSW 11.5 mph - N/A   Clear
1:55 AM 10.4 °F -4.8 °F 6.8 °F 85% 30.03 in 10.0 mi WSW 12.7 mph 18.4 mph N/A   Clear
2:15 AM 10.4 °F -4.1 °F 6.8 °F 85% 30.04 in 10.0 mi WSW 11.5 mph 16.1 mph N/A   Clear
2:35 AM 10.4 °F -3.3 °F 6.8 °F 85% 30.06 in 10.0 mi WSW 10.4 mph - N/A   Clear
2:55 AM 10.4 °F -2.4 °F 6.8 °F 85% 30.08 in 10.0 mi WSW 9.2 mph - N/A   Clear
3:15 AM 10.4 °F -3.3 °F 5.0 °F 79% 30.08 in 10.0 mi WSW 10.4 mph - N/A   Clear
3:35 AM 10.4 °F -4.1 °F 5.0 °F 79% 30.07 in 10.0 mi WSW 11.5 mph - N/A   Clear
3:55 AM 10.4 °F -3.3 °F 5.0 °F 79% 30.07 in 10.0 mi WSW 10.4 mph 18.4 mph N/A   Clear
4:15 AM 10.4 °F -2.4 °F 3.2 °F 73% 30.06 in 10.0 mi WSW 9.2 mph 16.1 mph N/A   Clear
4:35 AM 8.6 °F -5.5 °F 3.2 °F 79% 30.06 in 10.0 mi WSW 10.4 mph 16.1 mph N/A   Scattered Clouds
4:55 AM 10.4 °F -3.3 °F 5.0 °F 79% 30.06 in 10.0 mi WSW 10.4 mph - N/A   Overcast
5:15 AM 10.4 °F -4.1 °F 5.0 °F 79% 30.07 in 10.0 mi WSW 11.5 mph - N/A   Overcast
5:35 AM 10.4 °F -2.4 °F 5.0 °F 79% 30.08 in 10.0 mi WSW 9.2 mph - N/A   Overcast
5:55 AM 10.4 °F -3.3 °F 5.0 °F 79% 30.09 in 10.0 mi SW 10.4 mph - N/A   Overcast
6:15 AM 10.4 °F -2.4 °F 5.0 °F 79% 30.09 in 10.0 mi WSW 9.2 mph - N/A   Overcast
6:35 AM 10.4 °F -1.5 °F 5.0 °F 79% 30.10 in 10.0 mi SW 8.1 mph - N/A   Overcast
6:55 AM 10.4 °F -1.5 °F 5.0 °F 79% 30.10 in 10.0 mi SW 8.1 mph - N/A   Overcast
7:15 AM 8.6 °F -4.7 °F 5.0 °F 85% 30.11 in 10.0 mi WSW 9.2 mph - N/A   Mostly Cloudy
7:35 AM 8.6 °F -3.7 °F 5.0 °F 85% 30.11 in 10.0 mi SW 8.1 mph - N/A   Mostly Cloudy
7:55 AM 8.6 °F -4.7 °F 5.0 °F 85% 30.11 in 10.0 mi SW 9.2 mph - N/A   Scattered Clouds
8:15 AM 8.6 °F -5.5 °F 6.8 °F 92% 30.11 in 10.0 mi WSW 10.4 mph - N/A   Mostly Cloudy
8:35 AM 8.6 °F -5.5 °F 6.8 °F 92% 30.12 in 10.0 mi WSW 10.4 mph - N/A   Mostly Cloudy
8:55 AM 10.4 °F -2.4 °F 6.8 °F 85% 30.13 in 10.0 mi WSW 9.2 mph - N/A   Overcast
9:15 AM 10.4 °F -4.1 °F 6.8 °F 85% 30.14 in 10.0 mi West 11.5 mph - N/A   Overcast
9:35 AM 10.4 °F -3.3 °F 6.8 °F 85% 30.15 in 10.0 mi WSW 10.4 mph 17.3 mph N/A   Mostly Cloudy
9:55 AM 12.2 °F -3.7 °F 8.6 °F 85% 30.14 in 10.0 mi WSW 15.0 mph - N/A   Mostly Cloudy
10:15 AM 12.2 °F -3.7 °F 8.6 °F 85% 30.15 in 10.0 mi WSW 15.0 mph 18.4 mph N/A   Mostly Cloudy
10:35 AM 14.0 °F -0.2 °F 8.6 °F 79% 30.15 in 10.0 mi WSW 12.7 mph 19.6 mph N/A   Partly Cloudy
10:55 AM 15.8 °F 1.4 °F 10.4 °F 79% 30.16 in 10.0 mi WSW 13.8 mph 20.7 mph N/A   Clear
11:15 AM 15.8 °F 3.4 °F 10.4 °F 79% 30.16 in 10.0 mi WSW 10.4 mph 20.7 mph N/A   Clear
11:35 AM 17.6 °F 3.7 °F 10.4 °F 73% 30.16 in 10.0 mi West 13.8 mph 18.4 mph N/A   Clear
11:55 AM 17.6 °F 5.0 °F 12.2 °F 79% 30.15 in 10.0 mi WSW 11.5 mph 18.4 mph N/A   Clear
12:15 PM 17.6 °F 3.7 °F 12.2 °F 79% 30.15 in 10.0 mi West 13.8 mph 23.0 mph N/A   Clear
12:35 PM 19.4 °F 6.0 °F 12.2 °F 74% 30.15 in 10.0 mi WSW 13.8 mph 20.7 mph N/A   Clear
12:55 PM 19.4 °F 6.0 °F 12.2 °F 74% 30.15 in 10.0 mi West 13.8 mph 21.9 mph N/A   Clear
1:15 PM 21.2 °F 6.4 °F 12.2 °F 68% 30.15 in 10.0 mi West 18.4 mph - N/A   Clear
1:35 PM 21.2 °F 7.8 °F 12.2 °F 68% 30.15 in 10.0 mi WSW 15.0 mph 20.7 mph N/A   Clear
1:55 PM 21.2 °F 7.3 °F 12.2 °F 68% 30.16 in 10.0 mi WSW 16.1 mph 20.7 mph N/A   Clear
2:15 PM 21.2 °F 8.9 °F 12.2 °F 68% 30.15 in 10.0 mi WSW 12.7 mph 23.0 mph N/A   Clear
2:35 PM 21.2 °F 9.5 °F 12.2 °F 68% 30.15 in 10.0 mi WSW 11.5 mph 16.1 mph N/A   Clear
2:55 PM 21.2 °F 8.9 °F 12.2 °F 68% 30.15 in 10.0 mi West 12.7 mph 21.9 mph N/A   Clear
3:15 PM 21.2 °F 9.5 °F 12.2 °F 68% 30.15 in 10.0 mi WSW 11.5 mph 19.6 mph N/A   Clear
3:35 PM 21.2 °F 8.3 °F 12.2 °F 68% 30.15 in 10.0 mi WSW 13.8 mph 17.3 mph N/A   Scattered Clouds
3:55 PM 21.2 °F 8.9 °F 12.2 °F 68% 30.15 in 10.0 mi WSW 12.7 mph 16.1 mph N/A   Scattered Clouds
4:15 PM 21.2 °F 8.9 °F 12.2 °F 68% 30.16 in 10.0 mi West 12.7 mph - N/A   Clear
4:35 PM 19.4 °F 7.2 °F 12.2 °F 74% 30.17 in 10.0 mi West 11.5 mph - N/A   Clear
4:55 PM 19.4 °F 8.6 °F 12.2 °F 74% 30.18 in 10.0 mi WSW 9.2 mph - N/A   Scattered Clouds
5:15 PM 17.6 °F 6.4 °F 10.4 °F 73% 30.20 in 10.0 mi WSW 9.2 mph - N/A   Scattered Clouds
5:35 PM 17.6 °F 6.4 °F 10.4 °F 73% 30.19 in 10.0 mi WSW 9.2 mph - N/A   Scattered Clouds
5:55 PM 17.6 °F 8.2 °F 10.4 °F 73% 30.20 in 10.0 mi WSW 6.9 mph - N/A   Scattered Clouds
6:15 PM 17.6 °F 7.3 °F 10.4 °F 73% 30.20 in 10.0 mi WSW 8.1 mph - N/A   Overcast
6:35 PM 15.8 °F 4.2 °F 10.4 °F 79% 30.21 in 10.0 mi WSW 9.2 mph - N/A   Overcast
6:55 PM 15.8 °F 5.1 °F 10.4 °F 79% 30.21 in 10.0 mi WSW 8.1 mph - N/A   Scattered Clouds
7:15 PM 15.8 °F 5.1 °F 10.4 °F 79% 30.21 in 10.0 mi WSW 8.1 mph - N/A   Mostly Cloudy
7:35 PM 15.8 °F 2.7 °F 10.4 °F 79% 30.22 in 10.0 mi WSW 11.5 mph 16.1 mph N/A   Mostly Cloudy
7:55 PM 15.8 °F 6.1 °F 10.4 °F 79% 30.23 in 10.0 mi WSW 6.9 mph 16.1 mph N/A   Scattered Clouds
8:15 PM 15.8 °F 5.1 °F 10.4 °F 79% 30.23 in 10.0 mi WSW 8.1 mph - N/A   Mostly Cloudy
8:35 PM 14.0 °F 3.9 °F 10.4 °F 86% 30.23 in 10.0 mi WSW 6.9 mph - N/A   Scattered Clouds
8:55 PM 12.2 °F 1.7 °F 10.4 °F 92% 30.23 in 10.0 mi WSW 6.9 mph - N/A   Clear
9:15 PM 12.2 °F 0.7 °F 8.6 °F 85% 30.24 in 10.0 mi WSW 8.1 mph - N/A   Clear
9:35 PM 12.2 °F -0.2 °F 8.6 °F 85% 30.24 in 10.0 mi WSW 9.2 mph - N/A   Clear
9:55 PM 14.0 °F 2.0 °F 8.6 °F 79% 30.24 in 10.0 mi WSW 9.2 mph - N/A   Clear
10:15 PM 14.0 °F 3.9 °F 8.6 °F 79% 30.25 in 10.0 mi SW 6.9 mph - N/A   Clear
10:35 PM 12.2 °F 0.7 °F 8.6 °F 85% 30.26 in 10.0 mi WSW 8.1 mph - N/A   Partly Cloudy
10:55 PM 12.2 °F 0.7 °F 8.6 °F 85% 30.26 in 10.0 mi SW 8.1 mph - N/A   Partly Cloudy
11:15 PM 12.2 °F -0.2 °F 8.6 °F 85% 30.26 in 10.0 mi WSW 9.2 mph - N/A   Clear
11:35 PM 12.2 °F -0.2 °F 6.8 °F 79% 30.27 in 10.0 mi WSW 9.2 mph - N/A   Clear
11:55 PM 12.2 °F -0.2 °F 6.8 °F 79% 30.27 in 10.0 mi WSW 9.2 mph - N/A   Clear